sat.trackr.live / text

‹ back to catalog

STARLINK-4751

NORAD 53825 · 2022-114H

PAYLOAD ACTIVE UNKNOWN

§ Identity

Operator
Country
US
Launch date
2022-09-19
Launch site
AFETR
Launch vehicle
Mass (kg)
RCS (m²)

Purposes: comms

External: N2YO · Heavens-Above · Gunter

§ Orbital elements

Epoch: 2026-05-24T21:27:21.538656Z

Period
95.44 min
Inclination
53.2146°
Eccentricity
0.0001110
Mean motion
15.08852030 rev/d
Perigee alt
538.9 km
Apogee alt
540.5 km
Semi-major
6,917.8 km
B*
1.4900e-4
RAAN
322.1682°
Arg perigee
94.2259°
Mean anomaly
265.8860°
Rev number
20,433

§ Raw data

STARLINK-47511 53825U 22114H   26144.89399929  .00002085  00000+0  14900-3 0  99992 53825  53.2146 322.1682 0001110  94.2259 265.8860 15.08852030204333

JSON: /api/v1/satellites/53825 · /tle

For live sub-satellite position, see the globe view (requires WebGL).

§ Visibility from observer

Set your observer location to see the next 7 days of passes ≥ 10°. The values pass through the URL so the page stays shareable.

No JS? Fill the form by hand. The geolocation button needs JavaScript.